This demonstration page uses our WeatherBlox Daily Observations layout. Learn more.

Left ArrowRight Arrow

31.84235, -102.49876

Hourly Observations for May 16, 2015

Temp ( °F °C ) Dew Point ( °F °C ) Humidity (%) Winds ( mph kmh ) Pressure ( in mb ) Visibility ( mi km ) Precip ( " mm )
12:03 am 00:03 Mostly Cloudy with Nearby Thunderstorms 73 22.8 59 15 62 62 S 17 28 29.68 1005 10 16 0.00 0.00
12:35 am 00:35 Cloudy with Light Rain 71 21.7 60 15.6 68 68 SW 10 17 29.74 1007 10 16 0.00 0.03
12:53 am 00:53 Mostly Cloudy with Light Rain 70 21.1 62 16.7 76 76 SSW 22 35 29.73 1007 10 16 0.00 0.03
1:08 am 01:08 Partly Cloudy with Nearby Thunderstorms 69 20.6 63 17.2 81 81 S 17 28 29.71 1006 10 16 0.00 0.03
1:23 am 01:23 Partly Cloudy with Light Rain 69 20.6 63 17.2 81 81 SSW 15 24 29.71 1006 9 14 0.00 0.03
1:53 am 01:53 Clear 70 21.1 63 17.2 79 79 SSE 16 26 29.67 1005 9 14 0.01 0.25
2:53 am 02:53 Partly Cloudy 69 20.6 60 15.6 73 73 S 16 26 29.65 1004 10 16 0.00 0.00
3:53 am 03:53 Partly Cloudy 68 20 63 17.2 84 84 S 12 19 29.65 1004 8 13 0.00 0.00
4:03 am 04:03 Mostly Cloudy 68 20 63 17.2 84 84 S 13 20 29.68 1005 7 11 0.00 0.00
4:53 am 04:53 Mostly Cloudy 69 20.6 64 17.8 84 84 S 15 24 29.65 1004 7 11 0.00 0.00
5:53 am 05:53 Cloudy 69 20.6 64 17.8 84 84 S 14 22 29.65 1004 8 13 0.00 0.00
6:53 am 06:53 Cloudy 69 20.6 63 17.2 81 81 S 13 20 29.67 1005 7 11 0.00 0.00
7:53 am 07:53 Cloudy 68 20 63 17.2 84 84 S 20 31 29.69 1006 7 11 0.00 0.00
8:18 am 08:18 Cloudy with Haze 68 20 63 17.2 84 84 SSW 20 31 29.74 1007 6 10 0.00 0.00
8:53 am 08:53 Partly Cloudy 69 20.6 63 17.2 81 81 SSW 20 31 29.69 1006 7 11 0.00 0.00
9:53 am 09:53 Sunny 74 23.3 63 17.2 69 69 SSW 13 20 29.69 1005 8 13 0.00 0.00
10:53 am 10:53 Sunny 78 25.6 61 16.1 56 56 SSW 16 26 29.68 1005 10 16 0.00 0.00
11:53 am 11:53 Sunny 80 26.7 58 14.4 47 47 SSW 16 26 29.67 1005 10 16 0.00 0.00
12:53 pm 12:53 Sunny 84 28.9 46 7.8 27 27 WSW 20 31 29.67 1005 10 16 0.00 0.00
1:53 pm 13:53 Partly Cloudy 86 30 42 5.6 21 21 WSW 22 35 29.65 1004 10 16 0.00 0.00
2:53 pm 14:53 Mostly Sunny 86 30 43 6.1 22 22 WSW 18 30 29.64 1004 10 16 0.00 0.00
3:53 pm 15:53 Mostly Sunny 87 30.6 47 8.3 25 25 W 16 26 29.64 1004 10 16 0.00 0.00
4:53 pm 16:53 Sunny 86 30 44 6.7 23 23 WNW 20 31 29.63 1003 10 16 0.00 0.00
5:53 pm 17:53 Sunny 85 29.4 42 5.6 22 22 W 21 33 29.64 1004 10 16 0.00 0.00
6:53 pm 18:53 Sunny 84 28.9 35 1.7 17 17 WNW 25 41 29.64 1004 10 16 0.00 0.00
7:53 pm 19:53 Sunny 81 27.2 30 -1.1 16 16 WNW 23 37 29.64 1004 10 16 0.00 0.00
8:53 pm 20:53 Clear 77 25 26 -3.3 15 15 NW 15 24 29.68 1005 10 16 0.00 0.00
9:53 pm 21:53 Clear 72 22.2 29 -1.7 20 20 NW 7 11 29.71 1006 10 16 0.00 0.00
10:53 pm 22:53 Clear 73 22.8 28 -2.2 19 19 Calm 29.75 1008 10 16 0.00 0.00
11:53 pm 23:53 Clear 69 20.6 33 0.6 26 26 WNW 3 6 29.78 1009 10 16 0.00 0.00

Powered by AerisWeather